Warsaw, IN

5:25 AM EST on January 18, 2017 (GMT -0500)
Warsaw Municipal

Weather History for KASW - November, 2012

Change the Weather History Date:

Tuesday, November 13, 2012

  Actual Average Record
Temperature  
Mean Temperature 32 °F -  
Max Temperature 37 °F 48 °F 73 °F (1949)
Min Temperature 26 °F 30 °F 9 °F (1986)
Degree Days  
Heating Degree Days 34    
Moisture  
Dew Point 22 °F    
Average Humidity 68    
Maximum Humidity 86    
Minimum Humidity 56    
Precipitation  
Precipitation 0.00 in - - ()
Sea Level Pressure  
Sea Level Pressure 30.45 in    
Wind  
Wind Speed 8 mph (WNW)    
Max Wind Speed 14 mph    
Max Gust Speed 22 mph    
Visibility 10 miles    
Events      
Averages and records for this station are not official NWS values.
T = Trace of Precipitation, MM = Missing Value Source: NWS Daily Summary

Daily Weather History Graph

Daily Weather History Graph

Search for Another Location

Airport or City:

Trip Planner

Search our weather history database for the weather conditions in past years. The results will help you decide how hot, cold, wet, or windy it might be!

Date:

Astronomy

Nov. 13, 2012 Rise Set
Actual Time 7:29 AM EST 5:25 PM EST
Civil Twilight 7:00 AM EST 5:54 PM EST
Nautical Twilight 6:26 AM EST 6:28 PM EST
Astronomical Twilight 5:54 AM EST 7:00 PM EST
Moon 7:07 AM EST (11/13) 5:17 PM EST (11/13)
Length of Visible Light 10h 54m
Length of Day
9h 55m
Waning Crescent, 0% of the Moon is Illuminated
Nov 13
Waning Crescent
Nov 13
New
Nov 20
First Quarter
Nov 28
Full
Dec 6
Last Quarter

Hourly Weather History & Observations

Time (EST) Temp. Windchill Dew Point Humidity Pressure Visibility Wind Dir Wind Speed Gust Speed Precip Events Conditions
12:15 AM 32.0 °F 22.5 °F 21.2 °F 64% 30.33 in 10.0 mi West 12.7 mph 17.3 mph N/A   Overcast
12:35 AM 32.0 °F 23.6 °F 21.2 °F 64% 30.33 in 10.0 mi West 10.4 mph 17.3 mph N/A   Overcast
12:55 AM 32.0 °F 22.5 °F 21.2 °F 64% 30.33 in 10.0 mi West 12.7 mph 21.9 mph N/A   Overcast
1:15 AM 32.0 °F 23.0 °F 21.2 °F 64% 30.33 in 10.0 mi West 11.5 mph 21.9 mph N/A   Overcast
1:35 AM 32.0 °F 22.5 °F 23.0 °F 69% 30.33 in 10.0 mi West 12.7 mph - N/A   Overcast
2:15 AM 32.0 °F 23.6 °F 23.0 °F 69% 30.34 in 10.0 mi West 10.4 mph - N/A   Overcast
2:35 AM 32.0 °F 24.2 °F 23.0 °F 69% 30.34 in 10.0 mi West 9.2 mph - N/A   Overcast
2:55 AM 32.0 °F 24.2 °F 23.0 °F 69% 30.34 in 10.0 mi West 9.2 mph - N/A   Overcast
3:15 AM 32.0 °F 24.2 °F 23.0 °F 69% 30.35 in 10.0 mi WSW 9.2 mph - N/A   Overcast
3:55 AM 32.0 °F 25.6 °F 23.0 °F 69% 30.35 in 10.0 mi West 6.9 mph - N/A   Overcast
4:15 AM 32.0 °F 25.6 °F 24.8 °F 75% 30.35 in 10.0 mi West 6.9 mph - N/A   Overcast
4:35 AM 32.0 °F 24.8 °F 24.8 °F 75% 30.35 in 10.0 mi West 8.1 mph - N/A   Overcast
4:55 AM 32.0 °F 25.6 °F 26.6 °F 80% 30.36 in 10.0 mi WNW 6.9 mph - N/A   Overcast
5:15 AM 32.0 °F 23.0 °F 23.0 °F 69% 30.37 in 10.0 mi WNW 11.5 mph - N/A   Overcast
5:35 AM 32.0 °F 22.1 °F 23.0 °F 69% 30.38 in 10.0 mi West 13.8 mph - N/A   Overcast
5:55 AM 30.2 °F 22.6 °F 21.2 °F 69% 30.39 in 10.0 mi West 8.1 mph - N/A   Mostly Cloudy
6:15 AM 30.2 °F 21.9 °F 21.2 °F 69% 30.40 in 10.0 mi West 9.2 mph - N/A   Scattered Clouds
6:35 AM 28.4 °F 19.1 °F 21.2 °F 74% 30.40 in 10.0 mi WNW 10.4 mph - N/A   Clear
6:55 AM 28.4 °F 20.4 °F 21.2 °F 74% 30.41 in 10.0 mi WNW 8.1 mph - N/A   Clear
7:15 AM 26.6 °F 19.1 °F 19.4 °F 74% 30.42 in 10.0 mi West 6.9 mph - N/A   Clear
7:55 AM 26.6 °F 18.2 °F 21.2 °F 80% 30.44 in 10.0 mi West 8.1 mph - N/A   Clear
8:15 AM 28.4 °F 19.1 °F 21.2 °F 74% 30.45 in 10.0 mi West 10.4 mph - N/A   Clear
8:35 AM 28.4 °F 19.7 °F 19.4 °F 69% 30.46 in 10.0 mi West 9.2 mph - N/A   Clear
8:55 AM 30.2 °F 22.6 °F 21.2 °F 69% 30.46 in 10.0 mi West 8.1 mph - N/A   Clear
9:15 AM 30.2 °F 21.9 °F 19.4 °F 64% 30.47 in 10.0 mi West 9.2 mph - N/A   Clear
9:35 AM 32.0 °F 24.8 °F 21.2 °F 64% 30.47 in 10.0 mi West 8.1 mph - N/A   Mostly Cloudy
9:55 AM 32.0 °F 24.8 °F 21.2 °F 64% 30.48 in 10.0 mi West 8.1 mph - N/A   Scattered Clouds
10:15 AM 32.0 °F 25.6 °F 21.2 °F 64% 30.48 in 10.0 mi West 6.9 mph - N/A   Clear
10:35 AM 32.0 °F 24.8 °F 21.2 °F 64% 30.49 in 10.0 mi WNW 8.1 mph - N/A   Clear
10:55 AM 33.8 °F 27.0 °F 21.2 °F 60% 30.50 in 10.0 mi NW 8.1 mph - N/A   Clear
11:15 AM 33.8 °F 29.6 °F 21.2 °F 60% 30.50 in 10.0 mi NW 4.6 mph - N/A   Scattered Clouds
11:35 AM 33.8 °F 27.0 °F 21.2 °F 60% 30.49 in 10.0 mi NW 8.1 mph - N/A   Scattered Clouds
11:55 AM 32.0 °F 27.5 °F 21.2 °F 64% 30.49 in 10.0 mi West 4.6 mph - N/A   Mostly Cloudy
12:15 PM 32.0 °F - 21.2 °F 64% 30.48 in 10.0 mi Calm Calm - N/A   Mostly Cloudy
12:35 PM 33.8 °F 29.6 °F 21.2 °F 60% 30.48 in 10.0 mi NNW 4.6 mph - N/A   Mostly Cloudy
12:55 PM 33.8 °F 29.6 °F 21.2 °F 60% 30.47 in 10.0 mi NNW 4.6 mph - N/A   Mostly Cloudy
1:15 PM 35.6 °F 30.7 °F 23.0 °F 60% 30.47 in 10.0 mi North 5.8 mph - N/A   Overcast
1:55 PM 35.6 °F 30.7 °F 23.0 °F 60% 30.47 in 10.0 mi NE 5.8 mph - N/A   Mostly Cloudy
2:15 PM 37.4 °F 32.8 °F 23.0 °F 56% 30.47 in 10.0 mi NE 5.8 mph - N/A   Mostly Cloudy
2:35 PM 37.4 °F 32.1 °F 23.0 °F 56% 30.47 in 10.0 mi West 6.9 mph - N/A   Overcast
2:55 PM 37.4 °F 32.1 °F 23.0 °F 56% 30.47 in 10.0 mi NW 6.9 mph - N/A   Mostly Cloudy
3:15 PM 35.6 °F 30.7 °F 21.2 °F 56% 30.47 in 10.0 mi West 5.8 mph - N/A   Scattered Clouds
3:35 PM 35.6 °F 32.8 °F 21.2 °F 56% 30.47 in 10.0 mi West 3.5 mph - N/A   Mostly Cloudy
3:55 PM 35.6 °F - 21.2 °F 56% 30.47 in 10.0 mi Calm Calm - N/A   Scattered Clouds
4:15 PM 35.6 °F 32.8 °F 21.2 °F 56% 30.47 in 10.0 mi North 3.5 mph - N/A   Clear
4:35 PM 35.6 °F - 21.2 °F 56% 30.47 in 10.0 mi Calm Calm - N/A   Clear
4:55 PM 35.6 °F - 21.2 °F 56% 30.47 in 10.0 mi Calm Calm - N/A   Clear
5:15 PM 33.8 °F - 21.2 °F 60% 30.47 in 10.0 mi Calm Calm - N/A   Clear
5:35 PM 33.8 °F - 21.2 °F 60% 30.47 in 10.0 mi Calm Calm - N/A   Clear
6:15 PM 32.0 °F - 23.0 °F 69% 30.48 in 10.0 mi Calm Calm - N/A   Clear
6:55 PM 30.2 °F - 23.0 °F 75% 30.49 in 10.0 mi Calm Calm - N/A   Clear
7:15 PM 30.2 °F - 23.0 °F 75% 30.50 in 7.0 mi Calm Calm - N/A   Clear
7:35 PM 30.2 °F - 23.0 °F 75% 30.50 in 10.0 mi Calm Calm - N/A   Clear
7:55 PM 30.2 °F - 23.0 °F 75% 30.51 in 10.0 mi Calm Calm - N/A   Clear
8:15 PM 30.2 °F - 23.0 °F 75% 30.51 in 10.0 mi Calm Calm - N/A   Clear
8:35 PM 28.4 °F - 23.0 °F 80% 30.51 in 10.0 mi Calm Calm - N/A   Clear
8:55 PM 28.4 °F - 23.0 °F 80% 30.51 in 10.0 mi Calm Calm - N/A   Clear
9:15 PM 28.4 °F - 23.0 °F 80% 30.52 in 10.0 mi Calm Calm - N/A   Clear
9:35 PM 28.4 °F - 23.0 °F 80% 30.52 in 10.0 mi Calm Calm - N/A   Clear
9:55 PM 28.4 °F - 23.0 °F 80% 30.52 in 10.0 mi Calm Calm - N/A   Clear
10:15 PM 28.4 °F - 21.2 °F 74% 30.52 in 10.0 mi Calm Calm - N/A   Clear
10:35 PM 26.6 °F - 21.2 °F 80% 30.52 in 10.0 mi Calm Calm - N/A   Clear
10:55 PM 26.6 °F - 21.2 °F 80% 30.52 in 10.0 mi Calm Calm - N/A   Clear
11:15 PM 26.6 °F - 23.0 °F 86% 30.52 in 10.0 mi Calm Calm - N/A   Clear
11:35 PM 26.6 °F - 23.0 °F 86% 30.52 in 10.0 mi Calm Calm - N/A   Clear
11:55 PM 26.6 °F - 23.0 °F 86% 30.52 in 10.0 mi Calm Calm - N/A   Clear